This is the latest recevied weather packets stored in our database for station/object HA3YA-WX. If no packets are shown the sender has not sent any weather packets the latest 10 day(s).
| Time | Temp. | Humidity | Pressure | Rain* | Wind** | Luminosity | Snow |
|---|---|---|---|---|---|---|---|
| 1777897292 | 30° C | 17% | 1003 hPa | - | - | - | - |
| 1777896693 | 30° C | 18% | 1003 hPa | - | - | - | - |
| 1777896093 | 29.44° C | 18% | 1003 hPa | - | - | - | - |
| 1777895493 | 29.44° C | 18% | 1003 hPa | - | - | - | - |
| 1777894893 | 29.44° C | 19% | 1003.7 hPa | - | - | - | - |
| 1777894293 | 29.44° C | 21% | 1003 hPa | - | - | - | - |
| 1777893693 | 28.89° C | 22% | 1004 hPa | - | - | - | - |
| 1777893092 | 28.33° C | 22% | 1004 hPa | - | - | - | - |
| 1777892492 | 28.89° C | 22% | 1004.3 hPa | - | - | - | - |
| 1777891893 | 28.89° C | 23% | 1004.3 hPa | - | - | - | - |
| 1777891293 | 28.89° C | 24% | 1004 hPa | - | - | - | - |
| 1777890693 | 28.33° C | 25% | 1004 hPa | - | - | - | - |
| 1777890093 | 27.78° C | 26% | 1004 hPa | - | - | - | - |
| 1777889493 | 27.78° C | 26% | 1004 hPa | - | - | - | - |
| 1777888893 | 27.22° C | 27% | 1004 hPa | - | - | - | - |
| 1777888292 | 27.22° C | 29% | 1005 hPa | - | - | - | - |
| 1777887692 | 26.67° C | 29% | 1005 hPa | - | - | - | - |
| 1777887093 | 26.67° C | 30% | 1005 hPa | - | - | - | - |
| 1777886493 | 25.56° C | 32% | 1005 hPa | - | - | - | - |
| 1777885892 | 25° C | 33% | 1005 hPa | - | - | - | - |
| 1777885292 | 24.44° C | 34% | 1005 hPa | - | - | - | - |
| 1777884693 | 24.44° C | 35% | 1005.5 hPa | - | - | - | - |
| 1777884093 | 23.33° C | 36% | 1005.7 hPa | - | - | - | - |
| 1777883493 | 22.78° C | 37% | 1005.7 hPa | - | - | - | - |
| 1777882893 | 21.67° C | 38% | 1005.7 hPa | - | - | - | - |
* Rain since midnight (hover to see other rain measurements)
** Current wind speed in m/s (hover to see current wind gust speed)